Weather History for Dansville, NY

Change the Weather History Date:

Saturday, September 21, 2013

  Actual Average Record
Temperature  
Mean Temperature 64 °F -  
Max Temperature 71 °F 74 °F 91 °F (1983)
Min Temperature 55 °F 48 °F 30 °F (1973)
Degree Days  
Heating Degree Days 1    
Growing Degree Days 14 (Base 50)    
Moisture  
Dew Point 59 °F    
Average Humidity 87    
Maximum Humidity 100    
Minimum Humidity 65    
Precipitation  
Precipitation 0.68 in - - ()
Sea Level Pressure  
Sea Level Pressure 29.73 in    
Wind  
Wind Speed 7 mph (NNW)    
Max Wind Speed 14 mph    
Max Gust Speed 20 mph    
Visibility 7 miles    
Events Rain    
Averages and records for this station are not official NWS values.
T = Trace of Precipitation, MM = Missing Value Source: NWS Daily Summary

Daily Weather History Graph

Daily Weather History Graph

Search for Another Location

Airport:

Trip Planner

Search our weather history database for the weather conditions in past years. The results will help you decide how hot, cold, wet, or windy it might be!

Date:

Astronomy

Sep. 21, 2013 Rise Set
Actual Time 6:57 AM EDT 7:09 PM EDT
Civil Twilight 6:29 AM EDT 7:37 PM EDT
Nautical Twilight 5:56 AM EDT 8:10 PM EDT
Astronomical Twilight 5:22 AM EDT 8:44 PM EDT
Moon 8:14 PM EDT (9/21) 9:17 AM EDT (9/21)
Length of Visible Light 13h 08m
Length of Day
12h 12m
Waning Gibbous, 94% of the Moon is Illuminated
Sep 21
Waning Gibbous
Sep 26
Last Quarter
Oct 4
New
Oct 11
First Quarter
Oct 18
Full

Hourly Weather History & Observations

Time (EDT) Temp. Dew Point Humidity Pressure Visibility Wind Dir Wind Speed Gust Speed Precip Events Conditions
12:54 AM 70.0 °F 57.9 °F 65% 29.83 in 10.0 mi SE 8.1 mph - N/A   Clear
1:54 AM 70.0 °F 57.9 °F 65% 29.83 in 10.0 mi SE 8.1 mph 18.4 mph N/A   Clear
2:54 AM 69.1 °F 57.9 °F 68% 29.81 in 10.0 mi SE 5.8 mph - N/A   Overcast
3:54 AM 68.0 °F 59.0 °F 73% 29.79 in 10.0 mi ESE 6.9 mph - N/A   Clear
4:54 AM 66.9 °F 59.0 °F 76% 29.77 in 10.0 mi SE 8.1 mph - N/A   Clear
5:54 AM 66.9 °F 59.0 °F 76% 29.76 in 10.0 mi ESE 3.5 mph - N/A   Clear
6:54 AM 66.9 °F 60.1 °F 79% 29.75 in 10.0 mi Calm Calm - N/A   Scattered Clouds
7:54 AM 68.0 °F 61.0 °F 78% 29.73 in 10.0 mi SE 8.1 mph - N/A   Scattered Clouds
8:35 AM 69.8 °F 62.6 °F 78% 29.71 in 10.0 mi SE 8.1 mph - N/A   Mostly Cloudy
8:54 AM 71.1 °F 62.1 °F 73% 29.72 in 10.0 mi SSE 13.8 mph - N/A   Mostly Cloudy
9:54 AM 69.1 °F 63.0 °F 81% 29.71 in 4.0 mi SSE 11.5 mph 19.6 mph 0.02 in Rain Light Rain
10:43 AM 69.8 °F 64.4 °F 83% 29.68 in 10.0 mi SE 8.1 mph - 0.00 in   Overcast
10:54 AM 69.1 °F 64.0 °F 84% 29.69 in 10.0 mi SSE 8.1 mph - 0.00 in   Overcast
11:54 AM 64.0 °F 59.0 °F 84% 29.70 in 10.0 mi NNW 9.2 mph - N/A   Overcast
12:11 PM 62.6 °F 59.0 °F 88% 29.70 in 1.8 mi WNW 11.5 mph 18.4 mph 0.08 in Rain Heavy Rain
12:19 PM 62.6 °F 60.8 °F 94% 29.69 in 2.0 mi NNW 10.4 mph - 0.11 in Rain Rain
12:27 PM 62.6 °F 60.8 °F 94% 29.69 in 7.0 mi NNW 9.2 mph - 0.11 in Rain Light Rain
12:34 PM 62.6 °F 60.8 °F 94% 29.70 in 9.0 mi NNW 6.9 mph - 0.12 in Rain Light Rain
12:54 PM 62.1 °F 60.1 °F 93% 29.73 in 6.0 mi NW 10.4 mph - 0.17 in Rain Rain
1:31 PM 62.6 °F 60.8 °F 94% 29.70 in 2.5 mi NW 4.6 mph - 0.11 in Rain Rain
1:40 PM 62.6 °F 59.0 °F 88% 29.70 in 4.0 mi NW 10.4 mph - 0.13 in Rain Rain
1:54 PM 61.0 °F 59.0 °F 93% 29.73 in 3.0 mi WNW 8.1 mph - 0.16 in Rain Rain
2:03 PM 60.8 °F 59.0 °F 94% 29.71 in 2.5 mi NNW 6.9 mph - 0.03 in Rain Rain
2:11 PM 60.8 °F 59.0 °F 94% 29.70 in 5.0 mi NNW 5.8 mph - 0.04 in Rain Rain
2:23 PM 62.6 °F 60.8 °F 94% 29.70 in 5.0 mi NNW 4.6 mph - 0.05 in Rain Rain
2:49 PM 60.8 °F 60.8 °F 100% 29.71 in 3.0 mi Calm Calm - 0.09 in Rain Rain
2:50 PM 62.6 °F 60.8 °F 94% 29.71 in 3.0 mi Calm Calm - 0.09 in Rain Rain
2:54 PM 62.1 °F 60.1 °F 93% 29.73 in 2.5 mi WNW 3.5 mph - 0.10 in Rain Rain
3:03 PM 62.6 °F 60.8 °F 94% 29.71 in 3.0 mi NW 3.5 mph - 0.02 in Rain Rain
3:20 PM 60.8 °F 60.8 °F 100% 29.70 in 3.0 mi Calm Calm - 0.05 in Rain Rain
3:37 PM 60.8 °F 59.0 °F 94% 29.70 in 4.0 mi Calm Calm - 0.08 in Rain Rain
3:54 PM 61.0 °F 59.0 °F 93% 29.72 in 5.0 mi Calm Calm - 0.10 in Rain Rain
4:54 PM 61.0 °F 59.0 °F 93% 29.72 in 9.0 mi Calm Calm - 0.03 in Rain Light Rain
5:54 PM 61.0 °F 60.1 °F 97% 29.71 in 7.0 mi Calm Calm - 0.05 in Rain Rain
6:54 PM 61.0 °F 59.0 °F 93% 29.70 in 10.0 mi SSE 3.5 mph - 0.05 in Rain Light Rain
7:54 PM 61.0 °F 59.0 °F 93% 29.70 in 10.0 mi Calm Calm - 0.00 in   Overcast
8:54 PM 60.1 °F 57.9 °F 93% 29.72 in 10.0 mi SE 5.8 mph - N/A   Overcast
9:54 PM 60.1 °F 57.0 °F 90% 29.75 in 10.0 mi NW 13.8 mph 19.6 mph 0.00 in Rain Light Rain
10:46 PM 57.2 °F 53.6 °F 88% 29.76 in 10.0 mi NW 10.4 mph - 0.00 in   Overcast
10:54 PM 57.0 °F 52.0 °F 83% 29.78 in 10.0 mi NNW 8.1 mph - 0.00 in   Overcast
11:54 PM 55.9 °F 51.1 °F 84% 29.79 in 10.0 mi NNW 3.5 mph - N/A   Overcast